TimeEST,TemperatureF,Dew PointF,Humidity,Sea Level PressureIn,VisibilityMPH,Wind Direction,Wind SpeedMPH,Gust SpeedMPH,PrecipitationIn,Events,Conditions,WindDirDegrees,DateUTC
12:51 AM,33.1,25.0,72,30.21,10.0,West,6.9,-,0.00,,Overcast,280,2012-11-29 05:51:00
1:51 AM,33.8,24.8,70,30.22,8.0,WSW,5.8,-,N/A,Snow,Light Snow,240,2012-11-29 06:51:00
2:15 AM,33.8,26.6,75,30.23,2.5,West,9.2,-,0.00,Snow,Light Snow,260,2012-11-29 07:15:00
2:19 AM,33.8,26.6,75,30.23,3.0,West,6.9,-,0.00,Snow,Light Snow,270,2012-11-29 07:19:00
2:48 AM,33.8,28.4,81,30.23,10.0,WSW,5.8,-,0.00,Snow,Light Snow,240,2012-11-29 07:48:00
2:51 AM,32.0,28.0,85,30.24,10.0,WSW,5.8,-,0.00,Snow,Light Snow,240,2012-11-29 07:51:00
3:51 AM,32.0,27.0,82,30.25,10.0,Calm,Calm,-,0.00,Snow,Light Snow,0,2012-11-29 08:51:00
4:51 AM,33.1,26.1,75,30.25,10.0,West,5.8,-,0.00,Snow,Light Snow,280,2012-11-29 09:51:00
5:39 AM,33.8,26.6,75,30.24,10.0,West,4.6,-,0.00,Snow,Light Snow,280,2012-11-29 10:39:00
5:51 AM,33.1,26.1,75,30.26,9.0,WNW,5.8,-,0.00,Snow,Light Snow,290,2012-11-29 10:51:00
6:14 AM,33.8,26.6,75,30.25,10.0,WNW,3.5,-,0.00,Snow,Light Snow,300,2012-11-29 11:14:00
6:51 AM,33.1,26.1,75,30.27,10.0,West,3.5,-,0.00,Snow,Light Snow,280,2012-11-29 11:51:00
7:51 AM,30.9,26.1,82,30.28,10.0,SSW,4.6,-,0.00,,Mostly Cloudy,210,2012-11-29 12:51:00
8:51 AM,34.0,26.1,73,30.27,10.0,SSW,5.8,-,N/A,,Scattered Clouds,210,2012-11-29 13:51:00
9:51 AM,37.0,21.9,54,30.28,10.0,WSW,5.8,-,N/A,,Scattered Clouds,250,2012-11-29 14:51:00
10:51 AM,39.9,19.9,45,30.26,10.0,West,9.2,18.4,N/A,,Scattered Clouds,270,2012-11-29 15:51:00
11:51 AM,43.0,19.0,38,30.24,10.0,WSW,13.8,20.7,N/A,,Partly Cloudy,240,2012-11-29 16:51:00
12:51 PM,44.1,17.1,34,30.21,10.0,WSW,19.6,-,N/A,,Scattered Clouds,250,2012-11-29 17:51:00
1:51 PM,44.1,21.0,40,30.20,10.0,WSW,12.7,-,N/A,,Scattered Clouds,250,2012-11-29 18:51:00
2:51 PM,46.0,21.0,37,30.17,10.0,West,11.5,-,N/A,,Scattered Clouds,260,2012-11-29 19:51:00
3:51 PM,44.1,21.0,40,30.19,10.0,WSW,10.4,-,N/A,,Scattered Clouds,240,2012-11-29 20:51:00
4:51 PM,39.9,21.0,47,30.18,10.0,SSW,5.8,-,N/A,,Scattered Clouds,200,2012-11-29 21:51:00
5:51 PM,39.0,21.9,50,30.20,10.0,South,4.6,-,N/A,,Mostly Cloudy,190,2012-11-29 22:51:00
6:51 PM,37.9,21.9,53,30.20,10.0,South,5.8,-,N/A,,Scattered Clouds,180,2012-11-29 23:51:00
7:51 PM,33.1,21.9,64,30.22,10.0,South,3.5,-,N/A,,Partly Cloudy,190,2012-11-30 00:51:00
8:51 PM,33.1,21.9,64,30.23,10.0,South,3.5,-,N/A,,Mostly Cloudy,170,2012-11-30 01:51:00
9:51 PM,36.0,23.0,59,30.23,10.0,South,4.6,-,N/A,,Mostly Cloudy,180,2012-11-30 02:51:00
10:51 PM,37.0,24.1,59,30.24,10.0,South,3.5,-,N/A,,Overcast,190,2012-11-30 03:51:00
11:51 PM,36.0,25.0,64,30.24,10.0,South,5.8,-,N/A,,Overcast,190,2012-11-30 04:51:00